Terug naar catalogus

RISAT-2BR2

ActiefMilitairVLEO
NORAD 46905·PAYLOAD·🇮🇳 India

Gelanceerd Nov 7, 2020 vanaf Satish Dhawan Space Centre

Loading…

Volgende Passages (komende 24 uur)

TLE

VersSource: Space-Track

Epoch: Sep 14, 2026, 19:18 UTC

1 46905U 20081A   26257.80421081  .00000196  00000-0  21246-4 0  9996
2 46905  36.8983  52.3700 0013905 163.7105 196.4085 15.00892229320940

Volg RISAT-2BR2 in realtime met AllMySat

Download on the App Store